This is the latest recevied weather packets stored in our database for station/object WD4LSS. If no packets are shown the sender has not sent any weather packets the latest 10 day(s).
| Time | Temp. | Humidity | Pressure | Rain* | Wind** | Luminosity | Snow |
|---|---|---|---|---|---|---|---|
| 1777909517 | 21.67° C | 47% | 1017.7 hPa | 0 mm | - | - | - |
| 1777907117 | 20° C | 50% | 1017.8 hPa | 0 mm | - | - | - |
| 1777906817 | 19.44° C | 51% | 1017.8 hPa | 0 mm | - | - | - |
| 1777905017 | 18.33° C | 58% | 1017.7 hPa | 0 mm | - | - | - |
| 1777904117 | 16.67° C | 64% | 1017.6 hPa | 0 mm | - | - | - |
| 1777899337 | 9.44° C | 86% | 1017.4 hPa | 0 mm | - | - | - |
| 1777895737 | 5° C | 95% | 1017.4 hPa | 0 mm | - | - | - |
| 1777894817 | 3.89° C | 94% | 1017.5 hPa | 0 mm | - | - | - |
| 1777893317 | 3.89° C | 92% | 1017.2 hPa | 0 mm | - | - | - |
| 1777892417 | 3.33° C | 92% | 1017.3 hPa | 0 mm | - | - | - |
| 1777892117 | 3.33° C | 92% | 1017.3 hPa | 0 mm | - | - | - |
| 1777889716 | 3.89° C | 91% | 1017.3 hPa | 0 mm | - | - | - |
| 1777884017 | 4.44° C | 89% | 1017.4 hPa | 0 mm | - | - | - |
| 1777881616 | 5° C | 89% | 1017 hPa | 0 mm | - | - | - |
| 1777878336 | 5.56° C | 86% | 1017.2 hPa | 0 mm | - | - | - |
| 1777878016 | 5.56° C | 86% | 1017.1 hPa | 0 mm | - | - | - |
| 1777875916 | 6.11° C | 85% | 1017.2 hPa | 0 mm | - | - | - |
| 1777875616 | 6.11° C | 85% | 1017.1 hPa | 0 mm | - | - | - |
| 1777874728 | 6.11° C | 84% | 1017.3 hPa | 0 mm | - | - | - |
| 1777874428 | 6.67° C | 84% | 1017.3 hPa | 0 mm | - | - | - |
| 1777871136 | 6.67° C | 81% | 1017.3 hPa | 0 mm | - | - | - |
| 1777868416 | 7.22° C | 80% | 1017 hPa | 0 mm | - | - | - |
| 1777867816 | 7.22° C | 79% | 1017 hPa | 0 mm | - | - | - |
| 1777864237 | 8.33° C | 73% | 1017.2 hPa | 0 mm | - | - | - |
| 1777863617 | 8.89° C | 73% | 1017.3 hPa | 0 mm | - | - | - |
* Rain latest hour (hover to see other rain measurements)
** Current wind speed in m/s (hover to see current wind gust speed)